Oklahoma City, OK

10:10 PM CDT on May 23, 2017 (GMT -0500)
Will Rogers World

Weather History for KOKC - September, 2013

Change the Weather History Date:

Tuesday, September 3, 2013

  Actual Average Record
Temperature  
Mean Temperature 78 °F 79 °F  
Max Temperature 90 °F 90 °F 108 °F (2000)
Min Temperature 66 °F 68 °F 47 °F (1974)
Degree Days  
Heating Degree Days 0 0  
Month to date heating degree days 0 0  
Since 1 July heating degree days 0 0  
Cooling Degree Days 13 14  
Month to date cooling degree days 50 42  
Year to date cooling degree days 1673 1779  
Growing Degree Days 28 (Base 50)    
Moisture  
Dew Point 59 °F    
Average Humidity 51    
Maximum Humidity 73    
Minimum Humidity 29    
Precipitation  
Precipitation 0.00 in 0.13 in 3.16 in (1926)
Month to date precipitation T 0.38  
Year to date precipitation 45.19 25.27  
Sea Level Pressure  
Sea Level Pressure 30.00 in    
Wind  
Wind Speed 6 mph (NE)    
Max Wind Speed 13 mph    
Max Gust Speed 17 mph    
Visibility 10 miles    
Events      
T = Trace of Precipitation, MM = Missing Value Source: NWS Daily Summary

Daily Weather History Graph

Daily Weather History Graph

Search for Another Location

Airport or City:

Trip Planner

Search our weather history database for the weather conditions in past years. The results will help you decide how hot, cold, wet, or windy it might be!

Date:

Astronomy

Sep. 03, 2013 Rise Set
Actual Time 7:04 AM CDT 7:54 PM CDT
Civil Twilight 6:38 AM CDT 8:20 PM CDT
Nautical Twilight 6:07 AM CDT 8:50 PM CDT
Astronomical Twilight 5:36 AM CDT 9:21 PM CDT
Moon 5:21 AM CDT (9/3) 6:41 PM CDT (9/3)
Length of Visible Light 13h 41m
Length of Day
12h 49m
Waning Crescent, 3% of the Moon is Illuminated
Sep 3
Waning Crescent
Sep 5
New
Sep 12
First Quarter
Sep 19
Full
Sep 26
Last Quarter

Hourly Weather History & Observations

Time (CDT) Temp. Heat Index Dew Point Humidity Pressure Visibility Wind Dir Wind Speed Gust Speed Precip Events Conditions
12:52 AM 73.0 °F - 59.0 °F 61% 29.98 in 10.0 mi ENE 5.8 mph - N/A   Clear
1:52 AM 72.0 °F - 59.0 °F 64% 29.99 in 10.0 mi ENE 4.6 mph - N/A   Clear
2:52 AM 72.0 °F - 59.0 °F 64% 29.99 in 10.0 mi NE 5.8 mph - N/A   Clear
3:52 AM 70.0 °F - 60.1 °F 71% 29.99 in 10.0 mi NE 5.8 mph - N/A   Clear
4:52 AM 70.0 °F - 60.1 °F 71% 29.99 in 10.0 mi NE 4.6 mph - N/A   Clear
5:52 AM 69.1 °F - 60.1 °F 73% 30.00 in 10.0 mi NE 4.6 mph - N/A   Clear
6:52 AM 69.1 °F - 60.1 °F 73% 30.02 in 10.0 mi NNE 5.8 mph - N/A   Partly Cloudy
7:52 AM 71.1 °F - 61.0 °F 70% 30.03 in 10.0 mi NE 5.8 mph - N/A   Partly Cloudy
8:52 AM 75.0 °F - 62.1 °F 64% 30.05 in 10.0 mi ENE 4.6 mph - N/A   Partly Cloudy
9:52 AM 79.0 °F - 62.1 °F 56% 30.05 in 10.0 mi ENE 3.5 mph - N/A   Partly Cloudy
10:52 AM 82.0 °F 82.4 °F 60.1 °F 47% 30.05 in 10.0 mi NE 4.6 mph - N/A   Partly Cloudy
11:52 AM 82.9 °F 83.2 °F 60.1 °F 46% 30.05 in 10.0 mi NE 6.9 mph - N/A   Partly Cloudy
12:52 PM 86.0 °F 85.4 °F 59.0 °F 40% 30.04 in 10.0 mi North 5.8 mph - N/A   Partly Cloudy
1:52 PM 87.1 °F 86.1 °F 57.9 °F 37% 30.01 in 10.0 mi NE 6.9 mph - N/A   Partly Cloudy
2:52 PM 89.1 °F 88.8 °F 60.1 °F 38% 29.99 in 10.0 mi NNE 8.1 mph - N/A   Partly Cloudy
3:52 PM 90.0 °F 89.1 °F 59.0 °F 35% 29.98 in 10.0 mi ENE 5.8 mph - N/A   Partly Cloudy
4:52 PM 89.1 °F 88.0 °F 57.9 °F 35% 29.96 in 10.0 mi NNE 4.6 mph - N/A   Partly Cloudy
5:52 PM 89.1 °F 86.9 °F 54.0 °F 30% 29.96 in 10.0 mi Variable 6.9 mph - N/A   Partly Cloudy
6:52 PM 87.1 °F 85.3 °F 55.0 °F 33% 29.95 in 10.0 mi NNE 6.9 mph - N/A   Clear
7:52 PM 82.9 °F 82.1 °F 55.9 °F 39% 29.95 in 10.0 mi NE 6.9 mph - N/A   Clear
8:52 PM 80.1 °F 80.6 °F 57.9 °F 47% 29.97 in 10.0 mi ENE 5.8 mph - N/A   Clear
9:52 PM 79.0 °F - 57.0 °F 47% 29.99 in 10.0 mi ENE 3.5 mph - N/A   Clear
10:52 PM 75.0 °F - 59.0 °F 57% 30.01 in 10.0 mi East 5.8 mph - N/A   Clear
11:52 PM 73.9 °F - 59.0 °F 59% 30.01 in 10.0 mi ENE 5.8 mph - N/A   Clear